Location: Hermaringen
(48.5952°N, 10.2585°E)
Time: 13:08:29
(UTC+00:00)

Courier 1B Rocket - Pass Details

Date: 21 February 2026
Orbit: 920 x 1201 km, 28.2° (Epoch: 13 March)

Event Time Altitude Azimuth Distance (km) Brightness Sun altitude
Rises 18:34:18 0° 225° (SW) 3,543 8.5 -17.9°
Reaches altitude 10° 18:39:28 10° 189° (S) 2,611 7.3 -18.8°
Maximum altitude 18:40:46 11° 177° (S) 2,570 7.1 -19.0°
Drops below altitude 10° 18:42:03 10° 165° (SSE) 2,625 7.0 -19.2°
Enters shadow 18:43:09 - 155° (SSE) 2,742 7.1 -19.4°
